Погода в Боготоле

Погода в Боготоле : погода сейчас, прогноз погоды и архив. Всё, что Вы хотите узнать о погоде в Боготоле!

Хотите узнать прогноз погоды в Боготоле? Тогда Вам сюда: Погода в Боготоле

Поиск расширенной информации на нашем сайте:

Полезная информация: Что такое внутренний подтягивающий резистор.

Другие новости

Новости СМИ2

Главная страница сайта

Новости сайта

03.07.2017

Напоминаем, что на нашем специализированном сайте Метеоцентр.Азия вы можете получить высокодетализированные автоматические прогнозы погоды по пунктам России, СНГ и мира в авиационном формате (включающие направление и скорость ветра, видимость, явления погоды, количество и форму облачности, нижнюю и верхнюю границу облачности).

Рекомендуем: автополив газона

Погода в Боготоле - сегодня

Время (UTC), дата Ветер
(°,м/с) 
Видим.   Явления Облачность Т
(°С)
Тd
(°С)
f(%) Тe
(°С)
Pmin
(гПа)
dP
(гПа)
Po
(мм)
O2
(г/м3)
Тmin Tmax R s Состояние
почвы
21 19.09.17 270 (З) 10 км  дымка  10/4 600 м кучево-дожд., средняя 
[Cb cap|As op]
+7.8 +4.6 80 +9  1011.7  0.4  732  286           
00 20.09.17 270 (З) 10 км  дымка{ливн. осадки}  10/10 800 м кучево-дожд. 
[Cb cap]
+8.1 +4.6 79 +8  1013.2  1.5  734  286  +7.6    0.7    мокрая 
03 20.09.17 270 (З) 10 км  дымка{ливн. осадки}  10/9 800 м кучево-дожд., средняя 
[Cb cap|As op]
+8.6 +5.8 83 +9  1015.1  1.9  735  286           
06 20.09.17 260 (З) 10 км  дымка{ливн. осадки}  10/8 800 м кучево-дожд., средняя 
[Cb cap|As op]
+9.5 +8.7 95 +10  1016.4  1.3  736  285           
09 20.09.17 260 (З) 3{10}  20000 м    9/9 800 м кучево-дожд. 
[Cb cap]
+9.8 +8.8 93 +9  1017.3  0.9  737  285           
12 20.09.17 260 (З) 10 км  слаб. ливневой дождь  10/9 600 м кучево-дожд., средняя 
[Cb cap|As op]
+8.7 +5.6 81 +9  1018.5  737  287    +10.2  0.4     
15 20.09.17 270 (З) 10 км  слаб. ливневой дождь  10/8 600 м кучево-дожд., средняя 
[Cb cap|As trans]
+7.9 +4.7 80 +8  1019.5  0.9  738  288           
18 20.09.17 240 (ЮЗ) 10 км  дымка{ливн. осадки}  8/8 600 м кучево-дожд. 
[Cb cap]
+7.3 +3.8 78 +7  1019  -0.5  738  289           
21 20.09.17 210 (ЮЗ) 10 км  дымка  4/0 верхняя 
[Ci fib]
+5.8 +5.8 100 +6  1017.9  -0.5  737  290           
00 21.09.17 180 (Ю) 0500 м  туман  6/4 2000 м средняя, верхняя 
[Ac trans|Ci fib]
+2.8 +2.8 100 +4  1016.3  -1.9  735  293  +2.7       
03 21.09.17 110 (В) 10 км  дымка{туман}  8/4 1000 м верхняя 
[Sc|Ci fib]
+7.4 +3.5 76 +7  1013.4  -2.2  734  287           
06 21.09.17 110 (В) 20000 м  {туман}  9/4 600 м кучево-дожд., средняя, верхняя 
[Cb cap|Ac trans|Ci fib]
+9.4 +6.7 83 +8  1008.9  -4  731  283           
09 21.09.17 120 (ЮВ) 5{10}  20000 м  {ливн. осадки}  10/6 600 м кучево-дожд., средняя 
[Cb cap|As op]
+9.3 +4.2 70 +8  1005.1  -3.7  728  283           
12 21.09.17 100 (В) 10 км  слаб. ливневой дождь  10/8 600 м кучево-дожд., средняя 
[Cb cap|As op]
+7.1 +4 81 +6  1002.8  -2.4  726  284    +9.8     
15 21.09.17 070 (В) 10 км  слаб. ливневой дождь  10/8 600 м кучево-дожд., средняя 
[Cb cap|As op]
+6 +6 100 +6  1001  -1.8  725  285           
18 21.09.17 тихо ()   10 км  слаб. ливневой дождь  10/8 600 м кучево-дожд., средняя 
[Cb cap|As op]
+5.2 +5.2 100 +5  1000.6  -0.5  724  285           
21 21.09.17 310 (СЗ) 10 км  дымка{ливн. осадки}  9/8 800 м кучево-дожд., верхняя 
[Cb cap|Ci fib]
+5.2 +5.2 100 +6  1001.4  0.8  725  286           
00 22.09.17 290 (З) 10 км  слаб. ливневой дождь  10/8 600 м кучево-дожд., средняя 
[Cb cap|As op]
+5.8 +5.8 100 +7  1002.4  1.1  726  285  +5.1    10     
03 22.09.17 300 (СЗ) 10 км  слаб. ливневой дождь  10/10 600 м кучево-дожд. 
[Cb cap]
+6.6 +5.3 91 +8  1004  1.6  727  285           
06 22.09.17 320 (СЗ) 10 км  слаб. ливневой дождь  10/10 600 м кучево-дожд. 
[Cb cap]
+7.4 +3.8 78 +8  1005.5  1.5  728  285           
09 22.09.17 тихо ()   10 км  слаб. ливневой дождь  10/10 600 м кучево-дожд. 
[Cb cap]
+6.8 +4.8 87 +7  1007.4  1.8  729  286           
12 22.09.17 280 (З) 10 км  слаб. ливневой дождь  10/10 600 м кучево-дожд. 
[Cb cap]
+6.5 +5.9 96 +7  1009.9  2.3  731  287    +8.5     
15 22.09.17 270 (З) 10 км  дымка{ливн. осадки}  10/8 800 м кучево-дожд., средняя 
[Cb cap|As op]
+3.6 +3.5 99 +3  1012.5  2.2  733  291           
18 22.09.17 тихо ()   10 км  дымка{ливн. осадки}  6/3 600 м кучево-дожд., верхняя 
[Cb cap|Ci fib]
+1.5 +1.4 99 +2  1013.2  0.4  733  293           
21 22.09.17 тихо ()   10 км  дымка  6/4 600 м кучево-дожд., верхняя 
[Cb cap|Ci fib]
+1.7 +1.6 99 +2  1013.3  0.1  733  293           
Время (UTC), дата Ветер
(°,м/с) 
Видим.   Явления Облачность Т
(°С)
Тd
(°С)
f(%) Тe
(°С)
Pmin
(гПа)
dP
(гПа)
Po
(мм)
O2
(г/м3)
Тmin Tmax R s Состояние
почвы

Для получения пояснительной информации подведите курсор к названию столбца.

ПОГОДА в Боготоле - архив

Всё, что Вы хотите узнать о погоде в Боготоле - удобно и подробно!

Выберите нужную дату (начиная с 1 января 2015* года) и нажмите кнопку "Найти".
Будут отображены архивные сводки погоды по пункту Боготол, начиная с указанной даты.


Отображать данные в формате CSV (для использования в таблицах Excel)


Внимание! Наш архив погоды предназначен исключительно для личного некоммерческого использования в познавательных целях. Если Вам необходимы официальные справки о состоянии погоды (для производственных, юридических, коммерческих и т.п. целей), обращайтесь в органы Росгидромета.

*Примечание: данная дата относится к архиву по метеостанциям СССР (Россия, СНГ, Балтия).
Архив по метеостанциям Зарубежной Европы и Азии (кроме Китая) хранится 10 дней, по другим регионам земного шара (Китай, Африка, Америка, Австралия, Океания) - 1 день.

Боготол - район местоположения метеостанции


Название, широта, долгота, высота метеостанции:
Боготол 56.2°ш. 89.6°д. 291 м над ур. моря [Российская Федерация]

Дополнительная информация

В oтличие oт бoльшинства пoгoдных сайтoв мы публикуем пoдрoбную метеoинфoрмацию в детальнoм прoфессиoнальнoм фoрмате.

Характеристики температуры и влажнoсти вoздуха измеряются на высoте 2 м в тени вдали oт зданий и деревьев.
Скoрoсть ветра измеряется на высoте 10 м (на урoвне рoста челoвека скoрoсть ветра ниже в 1.5-2 раза). Если метеoстанция нахoдится в гoрoде или в лесу, тo скoрoсть ветра занижена на 2-4 м/с пo сравнению с oткрытым местoм. Скoрoсть ветра над акватoриями крупных рек и oзёр, а также на вершинах хoлмoв на 2-5 м/с выше, чем в oбычных услoвиях.
Атмoсфернoе давление в разных тoчках местнoсти мoжет значительнo oтличаться oт давления на метеoстанции, в зависимoсти oт услoвий рельефа (при пoдъёме на 10 м давление пoнижается примернo на 1 мм рт.ст.).